Location: Newark
(40.4667°N, 5.6000°W)
Time: 18:18:43
(UTC+00:00)

A-11 Canister half - Visible Passes

Search period start: 20 November 2019 00:00
Search period end: 30 November 2019 00:00
Orbit: 1514 x 1685 km, 47.2° (Epoch: 19 November)

Date Brightness Start Highest point End Pass type
(mag) Time Alt. Az. Time Alt. Az. Time Alt. Az.
20 Nov 9.2 17:37:21 10° SW 17:47:21 77° SSE 17:57:03 12° ENE visible
20 Nov 9.3 19:42:52 10° W 19:52:57 63° N 19:55:15 52° NE visible
20 Nov 10.4 21:49:04 10° WNW 21:53:27 29° WNW 21:53:27 29° WNW visible
21 Nov 9.3 17:14:28 10° SW 17:24:25 74° SE 17:34:34 10° ENE visible
21 Nov 9.3 19:19:51 10° W 19:29:55 64° NNW 19:33:33 43° NE visible
21 Nov 10.1 21:26:05 10° WNW 21:31:45 37° NW 21:31:45 37° NW visible
22 Nov 9.3 18:56:50 10° W 19:06:54 65° NNW 19:11:50 35° ENE visible
22 Nov 9.8 21:03:04 10° WNW 21:10:02 46° NW 21:10:02 46° NW visible
23 Nov 9.3 18:33:49 10° W 18:43:53 66° NNW 18:50:08 27° ENE visible
23 Nov 9.5 20:40:05 10° WNW 20:48:19 55° NNW 20:48:19 55° NNW visible
23 Nov 11.2 22:45:36 10° WNW 22:46:31 13° WNW 22:46:31 13° WNW visible
24 Nov 9.3 18:10:50 10° W 18:20:52 68° NNW 18:28:25 21° ENE visible
24 Nov 9.3 20:17:04 10° WNW 20:26:37 61° N 20:26:37 61° N visible
24 Nov 10.9 22:22:37 10° WNW 22:24:48 19° WNW 22:24:48 19° WNW visible
25 Nov 9.3 17:47:49 10° W 17:57:52 69° NNW 18:06:43 15° ENE visible
25 Nov 9.2 19:54:04 10° WNW 20:04:08 61° N 20:04:55 60° NNE visible
25 Nov 10.6 21:59:39 10° WNW 22:03:06 25° WNW 22:03:06 25° WNW visible
26 Nov 9.3 17:24:50 10° WSW 17:34:52 71° NNW 17:45:03 10° ENE visible
26 Nov 9.2 19:31:04 10° WNW 19:41:06 61° N 19:43:14 52° NE visible
26 Nov 10.3 21:36:41 10° WNW 21:41:26 33° WNW 21:41:26 33° WNW visible
27 Nov 9.3 19:08:03 10° WNW 19:18:05 60° N 19:21:34 43° ENE visible
27 Nov 9.9 21:13:43 10° WNW 21:19:46 43° WNW 21:19:46 43° WNW visible
28 Nov 9.3 18:45:03 10° WNW 18:55:03 60° N 18:59:56 34° ENE visible
28 Nov 9.5 20:50:44 10° WNW 20:58:08 55° WNW 20:58:08 55° WNW visible
29 Nov 9.3 18:22:02 10° WNW 18:32:01 59° N 18:38:20 26° ENE visible
29 Nov 9.2 20:27:46 10° WNW 20:36:32 70° NW 20:36:32 70° NW visible
29 Nov 11.1 22:33:19 10° WNW 22:34:44 15° WNW 22:34:44 15° WNW visible
